Location: Brookview Estates
(36.0476°N, 86.6931°W)
Time: 00:09:57
(UTC+00:00)

COSMOS 2428 - Pass Details

Date: 30 March 2020
Orbit: 846 x 856 km, 70.9° (Epoch: 04 June)

Event Time Altitude Azimuth Distance (km) Brightness Sun altitude
Rises 09:45:46 0° 333° (NNW) 3,417 5.8 -22.2°
Reaches altitude 10° 09:48:16 10° 330° (NNW) 2,476 5.0 -21.8°
Maximum altitude 09:53:49 57° 253° (WSW) 987 2.7 -20.7°
Drops below altitude 10° 09:59:20 10° 175° (S) 2,458 5.0 -19.7°
Sets 10:01:48 0° 171° (S) 3,389 5.7 -19.2°
